Weather reports worldwide

Advertisment
Lefkopa, Cyprus (17515): temperature & dewpoint: 30.03.2020 23:00:00 - 05.04.2020 23:00:00 (EEST)Lefkopa, Cyprus (17515): wind speed: 30.03.2020 23:00:00 - 05.04.2020 23:00:00 (EEST)Lefkopa, Cyprus (17515): wind direction: 30.03.2020 23:00:00 - 05.04.2020 23:00:00 (EEST)Lefkopa, Cyprus (17515): reduced air pressure: 30.03.2020 23:00:00 - 05.04.2020 23:00:00 (EEST)Lefkopa, Cyprus (17515): visibility: 30.03.2020 23:00:00 - 05.04.2020 23:00:00 (EEST)
Date & Time tt [°C] td [°C] ff [km/h] ff [kn] dd ppp [hPa] vv [km]
05.04.2020 23:00:00 - - - - - - -
05.04.2020 22:00:00 - - - - - - -
05.04.2020 21:00:00 15,6 12,3 15 8 SW 1013,4 10
05.04.2020 20:00:00 16,5 13,4 21 11 SSW 1011,9 10
05.04.2020 19:00:00 19,3 13,2 21 11 SSW 1011,0 10
05.04.2020 18:00:00 22,2 12,1 11 6 NNE 1010,1 10
05.04.2020 17:00:00 22,5 11,6 15 8 NNE 1009,5 10
05.04.2020 16:00:00 23,2 10,8 24 13 NE 1009,2 10
05.04.2020 15:00:00 23,5 8,6 28 15 ENE 1009,7 10
05.04.2020 14:00:00 24,1 7,6 26 14 ENE 1010,4 10
05.04.2020 13:00:00 22,9 5,7 37 20 NE 1010,5 10
05.04.2020 12:00:00 21,8 6,9 22 12 NE 1011,7 10
05.04.2020 11:00:00 21,6 7,2 28 15 NNE 1011,8 10
05.04.2020 10:00:00 21,2 6,1 24 13 ENE 1011,6 10
05.04.2020 09:00:00 17,3 7,5 0 0 N 1012,5 10
05.04.2020 08:00:00 14,8 7,6 0 0 N 1012,8 10
05.04.2020 07:00:00 16,1 6,0 9 5 NE 1012,9 10
05.04.2020 06:00:00 16,0 7,5 16 9 ENE 1013,0 10
05.04.2020 05:00:00 15,9 7,7 15 8 E 1013,6 10
05.04.2020 04:00:00 15,8 7,4 11 6 ENE 1013,8 10
05.04.2020 03:00:00 13,7 8,3 5 3 ENE 1014,3 10
05.04.2020 02:00:00 13,9 7,9 11 6 NE 1015,7 10
05.04.2020 01:00:00 13,8 7,6 0 0 N 1017,0 10
05.04.2020 00:00:00 13,6 7,5 8 4 NE 1017,3 10
04.04.2020 23:00:00 14,6 7,3 11 6 ENE 1017,7 10
04.04.2020 22:00:00 13,8 9,6 13 7 ENE 1018,3 10
04.04.2020 21:00:00 14,6 11,7 9 5 ENE 1018,4 10
04.04.2020 20:00:00 16,1 11,3 11 6 ENE 1018,4 10
04.04.2020 19:00:00 17,1 10,9 13 7 NE 1018,5 10
04.04.2020 18:00:00 18,8 11,3 16 9 NE 1018,4 10
04.04.2020 17:00:00 19,9 10,1 15 8 ENE 1018,6 10
04.04.2020 16:00:00 20,7 11,0 16 9 NE 1018,7 10
04.04.2020 15:00:00 22,8 9,7 26 14 E 1018,8 10
04.04.2020 14:00:00 22,2 9,0 15 8 NNE 1018,9 10
04.04.2020 13:00:00 21,6 9,1 18 10 ENE 1019,6 10
04.04.2020 12:00:00 20,5 7,8 8 4 NE 1020,2 10
04.04.2020 11:00:00 18,4 10,4 9 5 NE 1020,5 10
04.04.2020 10:00:00 17,0 10,8 13 7 NE 1020,5 10
04.04.2020 09:00:00 11,9 10,4 0 0 N 1020,7 10
04.04.2020 08:00:00 10,4 9,3 0 0 N 1020,6 10
04.04.2020 07:00:00 7,0 6,1 0 0 N 1020,1 10
04.04.2020 06:00:00 7,9 6,8 0 0 N 1019,8 10
04.04.2020 05:00:00 9,3 7,7 5 3 WSW 1019,8 10
04.04.2020 04:00:00 9,8 8,1 8 4 SSW 1020,1 10
04.04.2020 03:00:00 9,8 8,1 8 4 S 1020,2 10
04.04.2020 02:00:00 9,4 7,3 0 0 N 1020,0 10
04.04.2020 01:00:00 10,7 7,8 9 5 N 1019,8 10
04.04.2020 00:00:00 10,5 7,7 5 3 NW 1019,2 10
03.04.2020 23:00:00 12,4 8,8 0 0 N 1018,8 10
03.04.2020 22:00:00 12,9 9,2 24 13 WSW 1018,1 10
03.04.2020 21:00:00 13,1 9,0 22 12 W 1017,7 10
03.04.2020 20:00:00 13,4 8,6 11 6 WSW 1017,3 10
03.04.2020 19:00:00 15,0 7,7 22 12 SW 1016,1 10
03.04.2020 18:00:00 16,6 6,5 28 15 WSW 1015,5 10
03.04.2020 17:00:00 17,5 7,1 24 13 WSW 1015,3 10
03.04.2020 16:00:00 17,9 6,5 35 19 WSW 1014,9 10
03.04.2020 15:00:00 18,6 6,2 24 13 SW 1015,2 10
03.04.2020 14:00:00 19,3 3,9 28 15 WSW 1015,3 10
03.04.2020 13:00:00 19,4 8,0 34 18 WSW 1015,3 10
03.04.2020 12:00:00 18,6 6,0 24 13 WSW 1015,7 10
03.04.2020 11:00:00 18,6 10,6 8 4 SSW 1015,3 10
03.04.2020 10:00:00 18,6 10,6 8 4 SSW 1015,3 10
03.04.2020 09:00:00 13,7 10,4 0 0 N 1015,4 10
03.04.2020 08:00:00 10,6 9,4 0 0 N 1015,2 10
03.04.2020 07:00:00 9,2 8,1 0 0 N 1014,6 10
03.04.2020 06:00:00 8,6 7,6 8 4 NNW 1014,4 10
03.04.2020 05:00:00 9,9 8,9 8 4 NNE 1014,5 10
03.04.2020 04:00:00 9,6 8,3 0 0 N 1014,9 10
03.04.2020 03:00:00 11,3 9,8 0 0 N 1015,1 10
03.04.2020 02:00:00 11,3 9,8 5 3 NNE 1015,6 10
03.04.2020 01:00:00 11,4 9,8 0 0 N 1015,7 10
03.04.2020 00:00:00 11,5 9,2 5 3 N 1015,8 10
02.04.2020 23:00:00 14,1 9,8 5 3 WSW 1016,1 10
02.04.2020 22:00:00 13,7 10,3 8 4 SW 1016,0 10
02.04.2020 21:00:00 15,0 10,2 0 0 N 1015,3 10
02.04.2020 20:00:00 15,5 10,2 8 4 S 1014,8 10
02.04.2020 19:00:00 16,3 9,6 0 0 N 1014,7 10
02.04.2020 18:00:00 17,7 10,2 5 3 SW 1014,0 10
02.04.2020 17:00:00 18,2 10,8 15 8 W 1014,0 10
02.04.2020 16:00:00 18,3 11,5 15 8 NNW 1013,8 10
02.04.2020 15:00:00 18,6 11,4 13 7 NW 1013,9 10
02.04.2020 14:00:00 22,1 5,8 5 3 E 1013,9 10
02.04.2020 13:00:00 20,7 8,6 5 3 NE 1014,2 10
02.04.2020 12:00:00 20,1 6,5 8 4 SSE 1014,7 10
02.04.2020 11:00:00 18,8 8,4 8 4 W 1014,9 10
02.04.2020 10:00:00 16,3 8,6 8 4 S 1014,9 10
02.04.2020 09:00:00 11,7 7,5 5 3 S 1014,5 10
02.04.2020 08:00:00 11,1 7,9 5 3 NW 1014,4 10
02.04.2020 07:00:00 9,4 7,1 0 0 N 1014,2 10
02.04.2020 06:00:00 11,0 7,9 0 0 N 1013,5 10
02.04.2020 05:00:00 12,1 8,4 16 9 WSW 1013,0 10
02.04.2020 04:00:00 9,7 7,6 0 0 N 1013,2 10
02.04.2020 03:00:00 11,8 8,2 0 0 N 1013,3 10
02.04.2020 02:00:00 11,7 8,5 9 5 WNW 1013,5 10
02.04.2020 01:00:00 12,9 9,1 9 5 W 1013,6 10
02.04.2020 00:00:00 13,9 9,6 15 8 W 1013,5 10
01.04.2020 23:00:00 13,9 9,3 16 9 W 1013,4 10
01.04.2020 22:00:00 14,1 9,1 5 3 W 1013,3 10
01.04.2020 21:00:00 15,6 9,0 9 5 WSW 1014,2 10
01.04.2020 20:00:00 16,2 9,2 11 6 WSW 1011,7 10
01.04.2020 19:00:00 17,6 11,3 15 8 SW 1011,6 10
01.04.2020 18:00:00 18,5 11,6 18 10 SW 1011,6 10
01.04.2020 17:00:00 19,9 11,1 15 8 SW 1011,3 10
01.04.2020 16:00:00 20,6 9,1 18 10 WSW 1011,1 10
01.04.2020 15:00:00 20,8 10,0 13 7 WSW 1011,3 10
01.04.2020 14:00:00 20,6 9,5 18 10 SSW 1011,4 10
01.04.2020 13:00:00 19,8 12,1 22 12 SW 1011,4 10
01.04.2020 12:00:00 18,6 11,0 15 8 W 1011,5 10
01.04.2020 11:00:00 14,7 12,5 11 6 SW 1011,7 10
01.04.2020 10:00:00 15,4 12,0 5 3 WSW 1010,9 8
01.04.2020 09:00:00 13,7 12,1 8 4 WSW 1009,3 10
01.04.2020 08:00:00 14,7 11,5 0 0 N 1008,8 10
01.04.2020 07:00:00 14,6 11,0 0 0 N 1007,9 10
01.04.2020 06:00:00 11,5 9,6 9 5 SSW 1006,9 10
01.04.2020 05:00:00 11,8 10,1 0 0 N 1006,9 10
01.04.2020 04:00:00 11,7 10,4 0 0 N 1006,8 10
01.04.2020 03:00:00 10,1 8,8 5 3 W 1006,8 10
01.04.2020 02:00:00 11,8 10,3 0 0 N 1006,5 10
01.04.2020 01:00:00 13,0 11,1 0 0 N 1006,6 10
01.04.2020 00:00:00 13,8 10,9 0 0 N 1006,9 10
31.03.2020 23:00:00 13,5 10,9 5 3 NW 1007,0 10
31.03.2020 22:00:00 13,7 10,1 0 0 N 1007,4 10
31.03.2020 21:00:00 15,7 10,7 9 5 NE 1006,9 10
31.03.2020 20:00:00 15,8 10,5 16 9 N 1006,7 10
31.03.2020 19:00:00 17,5 10,8 22 12 N 1006,3 10
31.03.2020 18:00:00 19,7 10,3 16 9 N 1005,8 10
31.03.2020 17:00:00 20,4 10,7 26 14 N 1005,6 10
31.03.2020 16:00:00 21,5 10,3 18 10 NNE 1006,1 10
31.03.2020 15:00:00 22,1 6,9 24 13 NE 1007,2 10
31.03.2020 14:00:00 21,8 9,6 31 17 NNE 1008,5 10
31.03.2020 13:00:00 20,2 9,6 18 10 NE 1010,1 10
31.03.2020 12:00:00 19,5 11,3 26 14 NNE 1011,2 10
31.03.2020 11:00:00 16,9 12,7 16 9 NNE 1012,0 10
31.03.2020 10:00:00 14,9 13,1 9 5 NNE 1012,6 10
31.03.2020 09:00:00 13,2 11,5 5 3 ESE 1012,3 8
31.03.2020 08:00:00 12,4 11,2 9 5 NNW 1012,0 10
31.03.2020 07:00:00 11,8 10,7 0 0 N 1012,0 10
31.03.2020 06:00:00 12,1 10,9 0 0 N 1012,1 10
31.03.2020 05:00:00 12,1 10,8 5 3 NNW 1012,7 10
31.03.2020 04:00:00 12,9 11,4 0 0 N 1013,1 10
31.03.2020 03:00:00 13,5 11,7 0 0 N 1013,4 10
31.03.2020 02:00:00 14,0 12,1 9 5 ESE 1013,5 10
31.03.2020 01:00:00 13,9 12,1 0 0 N 1013,8 10
31.03.2020 00:00:00 13,8 12,4 5 3 N 1014,3 10
30.03.2020 23:00:00 14,3 12,6 0 0 N 1013,7 10

tt = temperature
td = dewpoint
ff = wind speed
dd = wind direction
ppp = reduced air pressure
vv = visibility

Next stations